Location: Arrien
(43.3167°N, 0.1500°W)
Time: 12:11:46
(UTC+00:00)

Cosmos 2082 - Pass Details

Date: 24 May 2022
Orbit: 835 x 853 km, 71.0° (Epoch: 28 June)

Event Time Altitude Azimuth Distance (km) Brightness Sun altitude
Rises 22:04:28 0° 327° (NNW) 3,399 8.4 -20.7°
Reaches altitude 10° 22:07:07 10° 318° (NW) 2,458 7.2 -21.0°
Maximum altitude 22:12:06 34° 255° (WSW) 1,358 4.8 -21.4°
Enters shadow 22:14:32 24° 212° (SSW) 1,682 5.0 -21.6°
